EJU71DB LIPZ-LOWW

Flight info

Callsign EJU71DB
Flight time 1h 7m
Altitude 18000
Route ROSKA7L/04R ROSKA M859 MONFA/N0414F330 DCT BARPI DCT LAPNA LAPNA2W
Aircraft A319/M-SDE3FGHIRWY/LB1

Departure

Time 2026-05-06 19:29
Airport Venice Marco Polo Airport (LIPZ)

Arrival

Time 2026-05-06 20:36
Airport Vienna International Airport (LOWW)
Time Latitude Longitude Altitude Speed Heading
2026-05-06 19:29 45.53602 12.39543 2622 ft 142 kts 74°
2026-05-06 19:29 45.53714 12.40980 3098 ft 151 kts 99°
2026-05-06 19:30 45.53521 12.42525 3541 ft 168 kts 104°
2026-05-06 19:30 45.53314 12.44287 3953 ft 191 kts 102°
2026-05-06 19:30 45.53093 12.46281 4391 ft 213 kts 102°
2026-05-06 19:30 45.52864 12.48418 5045 ft 222 kts 101°
2026-05-06 19:31 45.52638 12.50583 5941 ft 225 kts 101°
2026-05-06 19:31 45.52396 12.52802 6811 ft 228 kts 105°
2026-05-06 19:31 45.50925 12.56916 8152 ft 256 kts 121°
2026-05-06 19:32 45.50474 12.59541 8662 ft 288 kts 99°
2026-05-06 19:32 45.50381 12.62476 9513 ft 300 kts 94°
2026-05-06 19:32 45.50407 12.65520 10273 ft 316 kts 92°
2026-05-06 19:32 45.50445 12.68727 10756 ft 336 kts 92°
2026-05-06 19:33 45.50453 12.72110 11565 ft 344 kts 94°
2026-05-06 19:33 45.50419 12.75518 12467 ft 349 kts 95°
2026-05-06 19:33 45.50345 12.79008 13377 ft 354 kts 95°
2026-05-06 19:33 45.50242 12.82554 14211 ft 358 kts 96°
2026-05-06 19:34 45.50125 12.86099 14987 ft 363 kts 96°
2026-05-06 19:34 45.50000 12.89744 15770 ft 368 kts 96°
2026-05-06 19:34 45.49876 12.93416 16542 ft 373 kts 96°
2026-05-06 19:34 45.49752 12.97141 17278 ft 379 kts 96°
2026-05-06 19:35 45.49628 13.00872 17856 ft 384 kts 96°
2026-05-06 19:35 45.49500 13.04711 18589 ft 388 kts 96°
2026-05-06 19:35 45.49371 13.08580 19274 ft 392 kts 96°
2026-05-06 19:35 45.49242 13.12443 19954 ft 396 kts 96°
2026-05-06 19:36 45.49110 13.16389 20647 ft 399 kts 96°
2026-05-06 19:36 45.48975 13.20378 21338 ft 404 kts 96°
2026-05-06 19:36 45.48998 13.24426 22010 ft 411 kts 88°
2026-05-06 19:36 45.49517 13.28428 22672 ft 419 kts 76°
2026-05-06 19:37 45.50565 13.32343 23339 ft 426 kts 65°
2026-05-06 19:37 45.52015 13.36013 23903 ft 431 kts 60°
2026-05-06 19:37 45.53539 13.39757 24445 ft 436 kts 60°
2026-05-06 19:37 45.54554 13.42262 24786 ft 439 kts 61°
2026-05-06 19:38 45.56595 13.47318 25458 ft 445 kts 61°
2026-05-06 19:38 45.58146 13.51174 25957 ft 450 kts 60°
2026-05-06 19:38 45.59891 13.54943 26442 ft 455 kts 55°
2026-05-06 19:38 45.61725 13.58668 26935 ft 460 kts 55°
2026-05-06 19:39 45.63555 13.62389 27403 ft 464 kts 55°
2026-05-06 19:39 45.65427 13.66196 27874 ft 469 kts 55°
2026-05-06 19:39 45.67303 13.70028 28338 ft 473 kts 55°
2026-05-06 19:39 45.69185 13.73873 28795 ft 477 kts 55°
2026-05-06 19:40 45.71097 13.77780 29267 ft 482 kts 56°
2026-05-06 19:40 45.73040 13.81754 29733 ft 486 kts 56°
2026-05-06 19:40 45.74959 13.85695 30163 ft 490 kts 56°
2026-05-06 19:40 45.76908 13.89713 30554 ft 492 kts 56°
2026-05-06 19:41 45.78872 13.93772 30988 ft 494 kts 56°
2026-05-06 19:41 45.80814 13.97794 31401 ft 497 kts 56°
2026-05-06 19:41 45.82788 14.01885 31859 ft 498 kts 56°
2026-05-06 19:41 45.84780 14.06006 32085 ft 505 kts 56°
2026-05-06 19:42 45.86802 14.10191 32220 ft 513 kts 56°
2026-05-06 19:42 45.88849 14.14427 32508 ft 516 kts 56°
2026-05-06 19:42 45.90878 14.18629 32854 ft 518 kts 56°
2026-05-06 19:42 45.92929 14.22886 32936 ft 517 kts 56°
2026-05-06 19:43 45.97035 14.31427 32949 ft 523 kts 56°
2026-05-06 19:43 46.01169 14.40089 32902 ft 524 kts 56°
2026-05-06 19:44 46.04578 14.47257 32948 ft 521 kts 56°
2026-05-06 19:44 46.09334 14.57260 32945 ft 520 kts 56°
2026-05-06 19:45 46.12737 14.64433 32940 ft 519 kts 56°
2026-05-06 19:45 46.16804 14.73022 32932 ft 519 kts 56°
2026-05-06 19:46 46.20872 14.81671 32924 ft 519 kts 56°
2026-05-06 19:46 46.24915 14.90276 32928 ft 518 kts 56°
2026-05-06 19:47 46.29578 14.98133 32907 ft 514 kts 35°
2026-05-06 19:47 46.35533 15.03734 32914 ft 512 kts 30°
2026-05-06 19:48 46.41532 15.09248 32914 ft 511 kts 30°
2026-05-06 19:48 46.47543 15.14808 32891 ft 511 kts 30°
2026-05-06 19:49 46.53534 15.20385 32880 ft 511 kts 31°
2026-05-06 19:49 46.59497 15.25940 32894 ft 512 kts 31°
2026-05-06 19:50 46.65491 15.31555 32879 ft 513 kts 31°
2026-05-06 19:50 46.71430 15.37387 32872 ft 514 kts 33°
2026-05-06 19:51 46.77269 15.43305 32877 ft 514 kts 33°
2026-05-06 19:51 46.83177 15.49268 32880 ft 513 kts 32°
2026-05-06 19:52 46.89044 15.55132 32878 ft 513 kts 32°
2026-05-06 19:52 46.94926 15.61005 32886 ft 512 kts 32°
2026-05-06 19:53 47.00822 15.66913 32490 ft 508 kts 32°
2026-05-06 19:53 47.03682 15.69795 32175 ft 495 kts 32°
2026-05-06 19:53 47.06503 15.72647 31629 ft 487 kts 32°
2026-05-06 19:54 47.09291 15.75469 30333 ft 497 kts 32°
2026-05-06 19:54 47.12167 15.78384 28886 ft 506 kts 33°
2026-05-06 19:54 47.15105 15.81365 27422 ft 513 kts 33°
2026-05-06 19:54 47.18048 15.84355 26024 ft 516 kts 34°
2026-05-06 19:55 47.20960 15.87318 24688 ft 509 kts 34°
2026-05-06 19:55 47.23829 15.90240 24166 ft 485 kts 34°
2026-05-06 19:55 47.26525 15.92987 23965 ft 454 kts 34°
2026-05-06 19:55 47.29015 15.95526 23809 ft 428 kts 34°
2026-05-06 19:56 47.31430 15.97994 23302 ft 415 kts 34°
2026-05-06 19:56 47.33755 16.00372 22628 ft 406 kts 34°
2026-05-06 19:56 47.36116 16.02603 21947 ft 400 kts 28°
2026-05-06 19:56 47.38617 16.04383 21337 ft 395 kts 20°
2026-05-06 19:57 47.41192 16.05728 20749 ft 391 kts 17°
2026-05-06 19:57 47.43767 16.06998 20248 ft 389 kts 17°
2026-05-06 19:57 47.46306 16.08255 19808 ft 386 kts 17°
2026-05-06 19:57 47.48875 16.09528 18967 ft 394 kts 17°
2026-05-06 19:58 47.51495 16.10827 18249 ft 399 kts 17°
2026-05-06 19:58 47.54139 16.12141 17762 ft 396 kts 17°
2026-05-06 19:58 47.56712 16.13418 17261 ft 392 kts 17°
2026-05-06 19:58 47.59296 16.14702 16790 ft 387 kts 17°
2026-05-06 19:59 47.61835 16.15967 16402 ft 382 kts 17°
2026-05-06 19:59 47.64319 16.17207 16021 ft 377 kts 17°
2026-05-06 19:59 47.66785 16.18438 15733 ft 372 kts 17°
2026-05-06 19:59 47.69276 16.19680 15011 ft 379 kts 17°
2026-05-06 20:00 47.71729 16.20908 14865 ft 362 kts 17°
2026-05-06 20:00 47.74039 16.22074 14844 ft 337 kts 17°
2026-05-06 20:00 47.76168 16.23152 14832 ft 315 kts 17°
2026-05-06 20:00 47.78061 16.24500 14824 ft 295 kts 37°
2026-05-06 20:01 47.79460 16.26608 14749 ft 279 kts 59°
2026-05-06 20:01 47.80278 16.29161 14542 ft 269 kts 80°
2026-05-06 20:01 47.80506 16.31862 14310 ft 259 kts 98°
2026-05-06 20:01 47.80194 16.34458 14063 ft 249 kts 117°
2026-05-06 20:02 47.79435 16.36684 13822 ft 240 kts 134°
2026-05-06 20:02 47.78314 16.38465 13561 ft 231 kts 149°
2026-05-06 20:02 47.76971 16.39689 13285 ft 223 kts 163°
2026-05-06 20:02 47.75516 16.40341 13009 ft 217 kts 177°
2026-05-06 20:03 47.74029 16.40429 12725 ft 211 kts 189°
2026-05-06 20:03 47.72606 16.39983 12445 ft 208 kts 202°
2026-05-06 20:03 47.71323 16.39065 12140 ft 206 kts 213°
2026-05-06 20:03 47.70165 16.37817 11880 ft 204 kts 219°
2026-05-06 20:04 47.69059 16.36470 11793 ft 205 kts 220°
2026-05-06 20:04 47.67963 16.35106 11810 ft 206 kts 220°
2026-05-06 20:04 47.66876 16.33756 11806 ft 206 kts 220°
2026-05-06 20:04 47.65778 16.32399 11806 ft 206 kts 220°
2026-05-06 20:05 47.64672 16.31036 11816 ft 205 kts 219°
2026-05-06 20:05 47.63582 16.29698 11799 ft 206 kts 219°
2026-05-06 20:05 47.62475 16.28330 11813 ft 206 kts 222°
2026-05-06 20:05 47.61509 16.26758 11806 ft 206 kts 233°
2026-05-06 20:06 47.60803 16.24890 11801 ft 208 kts 244°
2026-05-06 20:06 47.60638 16.24212 11810 ft 208 kts 249°
2026-05-06 20:06 47.60415 16.22654 11803 ft 212 kts 259°
2026-05-06 20:06 47.60469 16.20390 11816 ft 241 kts 278°
2026-05-06 20:07 47.61383 16.17996 11755 ft 301 kts 310°
2026-05-06 20:07 47.63283 16.16335 11474 ft 332 kts 341°
2026-05-06 20:07 47.65596 16.16210 11224 ft 345 kts
2026-05-06 20:07 47.67890 16.17328 10960 ft 348 kts 22°
2026-05-06 20:08 47.70071 16.18927 10718 ft 348 kts 26°
2026-05-06 20:08 47.72151 16.20708 10463 ft 348 kts 34°
2026-05-06 20:08 47.74086 16.22877 10219 ft 347 kts 38°
2026-05-06 20:08 47.75971 16.25137 10032 ft 346 kts 40°
2026-05-06 20:09 47.77708 16.27494 10004 ft 330 kts 45°
2026-05-06 20:09 47.79184 16.30029 10010 ft 316 kts 54°
2026-05-06 20:09 47.80337 16.32674 10019 ft 300 kts 61°
2026-05-06 20:09 47.81373 16.35299 10014 ft 290 kts 62°
2026-05-06 20:10 47.82386 16.37895 10010 ft 288 kts 62°
2026-05-06 20:10 47.83389 16.40480 10008 ft 288 kts 62°
2026-05-06 20:10 47.84379 16.43037 10020 ft 288 kts 62°
2026-05-06 20:10 47.85381 16.45623 10024 ft 287 kts 62°
2026-05-06 20:11 47.86383 16.48215 10019 ft 288 kts 62°
2026-05-06 20:11 47.87387 16.50805 10024 ft 288 kts 62°
2026-05-06 20:11 47.88380 16.53361 10019 ft 287 kts 61°
2026-05-06 20:11 47.89380 16.55937 10015 ft 285 kts 61°
2026-05-06 20:12 47.90362 16.58464 10006 ft 285 kts 61°
2026-05-06 20:12 47.91360 16.61035 10010 ft 285 kts 61°
2026-05-06 20:12 47.92342 16.63567 10010 ft 285 kts 61°
2026-05-06 20:12 47.93336 16.66131 10009 ft 284 kts 61°
2026-05-06 20:13 47.94332 16.68707 9953 ft 285 kts 62°
2026-05-06 20:13 47.95318 16.71262 9820 ft 284 kts 61°
2026-05-06 20:13 47.96294 16.73791 9574 ft 283 kts 61°
2026-05-06 20:13 47.97277 16.76341 9323 ft 281 kts 61°
2026-05-06 20:14 47.98464 16.78635 9059 ft 281 kts 41°
2026-05-06 20:14 48.00102 16.80187 8794 ft 277 kts 19°
2026-05-06 20:14 48.01962 16.80811 8541 ft 271 kts 357°
2026-05-06 20:14 48.03775 16.80501 8288 ft 262 kts 337°
2026-05-06 20:15 48.05422 16.79419 8033 ft 256 kts 326°
2026-05-06 20:15 48.07012 16.78188 7790 ft 256 kts 326°
2026-05-06 20:15 48.08585 16.76975 7545 ft 257 kts 327°
2026-05-06 20:15 48.10172 16.75754 7300 ft 257 kts 327°
2026-05-06 20:16 48.11764 16.74532 7066 ft 256 kts 326°
2026-05-06 20:16 48.13333 16.73326 6834 ft 255 kts 326°
2026-05-06 20:16 48.14913 16.72112 6589 ft 254 kts 326°
2026-05-06 20:16 48.16487 16.70897 6353 ft 253 kts 326°
2026-05-06 20:17 48.18034 16.69700 6119 ft 253 kts 326°
2026-05-06 20:17 48.19604 16.68486 5999 ft 253 kts 326°
2026-05-06 20:17 48.21176 16.67274 6004 ft 254 kts 326°
2026-05-06 20:17 48.22805 16.66205 6003 ft 259 kts 336°
2026-05-06 20:18 48.24529 16.65484 6003 ft 260 kts 339°
2026-05-06 20:18 48.26276 16.64760 6002 ft 259 kts 339°
2026-05-06 20:18 48.28113 16.64375 5994 ft 273 kts
2026-05-06 20:18 48.29923 16.65010 5998 ft 259 kts 14°
2026-05-06 20:19 48.31604 16.65829 6002 ft 249 kts 15°
2026-05-06 20:19 48.33234 16.66621 5999 ft 247 kts 15°
2026-05-06 20:19 48.34876 16.67413 5997 ft 247 kts 15°
2026-05-06 20:19 48.36503 16.68196 5997 ft 247 kts 15°
2026-05-06 20:20 48.38140 16.69000 5998 ft 246 kts 15°
2026-05-06 20:20 48.39767 16.69807 5995 ft 247 kts 15°
2026-05-06 20:20 48.41405 16.70612 5993 ft 246 kts 15°
2026-05-06 20:20 48.43046 16.71408 5990 ft 247 kts 15°
2026-05-06 20:21 48.44671 16.72200 5992 ft 247 kts 15°
2026-05-06 20:21 48.46323 16.72859 5988 ft 243 kts 359°
2026-05-06 20:21 48.47996 16.72696 5989 ft 239 kts 347°
2026-05-06 20:21 48.49617 16.72337 5987 ft 238 kts 346°
2026-05-06 20:22 48.51261 16.71950 5987 ft 238 kts 345°
2026-05-06 20:22 48.52909 16.71560 5989 ft 239 kts 346°
2026-05-06 20:22 48.54541 16.71145 5990 ft 239 kts 346°
2026-05-06 20:22 48.56190 16.70716 5989 ft 239 kts 346°
2026-05-06 20:23 48.57836 16.70285 5987 ft 239 kts 346°
2026-05-06 20:23 48.59478 16.69857 5986 ft 238 kts 345°
2026-05-06 20:23 48.61082 16.69441 5992 ft 234 kts 345°
2026-05-06 20:23 48.62656 16.68884 5983 ft 227 kts 331°
2026-05-06 20:24 48.63807 16.67429 5863 ft 216 kts 297°
2026-05-06 20:24 48.64230 16.65345 5613 ft 204 kts 270°
2026-05-06 20:24 48.64272 16.63195 5359 ft 203 kts 265°
2026-05-06 20:24 48.63842 16.61230 5112 ft 201 kts 231°
2026-05-06 20:25 48.62864 16.59739 4992 ft 197 kts 221°
2026-05-06 20:25 48.61742 16.58495 4985 ft 202 kts 213°
2026-05-06 20:25 48.60534 16.57437 4984 ft 204 kts 211°
2026-05-06 20:25 48.59289 16.56390 4984 ft 204 kts 211°
2026-05-06 20:26 48.58057 16.55362 4983 ft 203 kts 210°
2026-05-06 20:26 48.56779 16.54450 4984 ft 203 kts 202°
2026-05-06 20:26 48.55443 16.53751 4987 ft 204 kts 201°
2026-05-06 20:26 48.54084 16.53095 4984 ft 204 kts 201°
2026-05-06 20:27 48.52764 16.52503 4975 ft 193 kts 200°
2026-05-06 20:27 48.51492 16.51942 4983 ft 188 kts 200°
2026-05-06 20:27 48.50249 16.51394 4987 ft 187 kts 201°
2026-05-06 20:27 48.48998 16.50845 4985 ft 187 kts 200°
2026-05-06 20:28 48.47744 16.50294 4988 ft 187 kts 200°
2026-05-06 20:28 48.46488 16.49739 4988 ft 188 kts 200°
2026-05-06 20:28 48.45235 16.49179 4987 ft 187 kts 201°
2026-05-06 20:28 48.44000 16.48632 4986 ft 188 kts 200°
2026-05-06 20:29 48.42738 16.48064 4989 ft 188 kts 200°
2026-05-06 20:29 48.41495 16.47496 4992 ft 188 kts 201°
2026-05-06 20:29 48.40238 16.46933 4992 ft 187 kts 200°
2026-05-06 20:29 48.38956 16.46518 4995 ft 191 kts 185°
2026-05-06 20:30 48.37644 16.46879 4999 ft 196 kts 169°
2026-05-06 20:30 48.35018 16.48013 4997 ft 196 kts 169°
2026-05-06 20:30 48.33718 16.48570 4900 ft 196 kts 169°
2026-05-06 20:31 48.32407 16.49131 4695 ft 195 kts 170°
2026-05-06 20:31 48.31096 16.49690 4465 ft 195 kts 170°
2026-05-06 20:31 48.29774 16.50253 4207 ft 197 kts 170°
2026-05-06 20:31 48.28471 16.50809 3951 ft 198 kts 169°
2026-05-06 20:32 48.27142 16.51376 3666 ft 196 kts 171°
2026-05-06 20:32 48.25843 16.51931 3408 ft 188 kts 171°
2026-05-06 20:32 48.24630 16.52449 3177 ft 179 kts 171°
2026-05-06 20:32 48.23453 16.52951 2971 ft 169 kts 172°
2026-05-06 20:33 48.22329 16.53428 2737 ft 165 kts 172°
2026-05-06 20:33 48.21262 16.53882 2514 ft 155 kts 172°
2026-05-06 20:33 48.20280 16.54302 2332 ft 136 kts 172°
2026-05-06 20:33 48.19430 16.54664 2162 ft 121 kts 172°
2026-05-06 20:34 48.18640 16.54997 2007 ft 117 kts 171°
2026-05-06 20:34 48.17853 16.55329 1847 ft 116 kts 171°
2026-05-06 20:34 48.17337 16.55547 1746 ft 115 kts 170°
2026-05-06 20:34 48.16319 16.55977 1549 ft 114 kts 169°
2026-05-06 20:35 48.15810 16.56193 1442 ft 115 kts 168°
2026-05-06 20:35 48.14783 16.56627 1237 ft 114 kts 168°
2026-05-06 20:35 48.14267 16.56845 1132 ft 114 kts 168°
2026-05-06 20:35 48.13511 16.57165 965 ft 114 kts 167°
2026-05-06 20:36 48.12747 16.57490 807 ft 113 kts 167°
2026-05-06 20:36 48.11966 16.57823 661 ft 116 kts 166°
2026-05-06 20:36 48.11266 16.58116 621 ft 82 kts 165°
2026-05-06 20:36 48.10971 16.58242 617 ft 29 kts 163°
2026-05-06 20:37 48.10743 16.58284 618 ft 33 kts 185°
2026-05-06 20:37 48.10564 16.58221 622 ft 17 kts 218°
2026-05-06 20:37 48.10615 16.58115 620 ft 16 kts 342°
2026-05-06 20:37 48.10725 16.58068 623 ft 17 kts 345°
2026-05-06 20:38 48.10839 16.58021 611 ft 18 kts 344°
2026-05-06 20:38 48.10950 16.57944 610 ft 18 kts 315°
2026-05-06 20:38 48.11035 16.57799 618 ft 19 kts 305°
2026-05-06 20:38 48.11096 16.57621 613 ft 20 kts 295°
2026-05-06 20:39 48.11154 16.57434 614 ft 20 kts 296°
2026-05-06 20:39 48.11220 16.57243 621 ft 21 kts 296°
2026-05-06 20:39 48.11286 16.57040 620 ft 22 kts 296°
2026-05-06 20:39 48.11354 16.56830 614 ft 23 kts 296°
2026-05-06 20:40 48.11424 16.56611 614 ft 24 kts 295°
2026-05-06 20:40 48.11497 16.56390 616 ft 24 kts 296°
2026-05-06 20:40 48.11571 16.56166 613 ft 23 kts 297°
2026-05-06 20:40 48.11636 16.55965 614 ft 21 kts 295°
2026-05-06 20:41 48.11697 16.55782 615 ft 18 kts 297°
2026-05-06 20:41 48.11749 16.55619 616 ft 16 kts 297°
2026-05-06 20:41 48.11820 16.55600 622 ft 11 kts 44°
2026-05-06 20:41 48.11864 16.55673 618 ft 9 kts 28°
2026-05-06 20:42 48.11904 16.55701 612 ft 3 kts 25°
2026-05-06 20:42 48.11908 16.55704 611 ft 0 kts 26°